| time (UTC) | temp F | wind direction | speed knots | gust knots | rain 1hr in | rain 24hr in | rain mn in | humidity % | barometer mb |
| 20260505130109 | 52 | 0 | 0.0 | 0.9 | 0.00 | 0.58 | 0.08 | 94 | 1014.1 |
| 20260505124558 | 52 | 0 | 0.0 | 0.0 | 0.00 | 0.58 | 0.08 | 94 | 1014.2 |
| 20260505123104 | 52 | 0 | 0.0 | 0.0 | 0.00 | 0.58 | 0.08 | 94 | 1014.1 |
| 20260505121559 | 52 | 0 | 0.0 | 0.0 | 0.00 | 0.58 | 0.08 | 93 | 1014.1 |
| 20260505120104 | 52 | 0 | 0.0 | 1.7 | 0.00 | 0.58 | 0.08 | 93 | 1014.2 |
| 20260505114559 | 52 | 0 | 0.0 | 0.0 | 0.00 | 0.58 | 0.08 | 93 | 1014.0 |
| 20260505113100 | 52 | 0 | 0.0 | 0.9 | 0.00 | 0.58 | 0.08 | 93 | 1013.8 |
| 20260505111552 | 52 | 0 | 0.0 | 0.9 | 0.00 | 0.58 | 0.08 | 93 | 1014.1 |
| 20260505110123 | 52 | 0 | 0.0 | 1.7 | 0.00 | 0.58 | 0.08 | 93 | 1013.7 |
| 20260505101611 | 52 | 0 | 0.0 | 0.0 | 0.01 | 0.58 | 0.08 | 93 | 1014.3 |
| 20260505100105 | 52 | 0 | 0.0 | 0.9 | 0.01 | 0.58 | 0.08 | 93 | 1014.3 |
| 20260505094636 | 52 | 0 | 0.0 | 0.0 | 0.01 | 0.58 | 0.08 | 93 | 1014.2 |
| 20260505093102 | 52 | 0 | 0.0 | 0.0 | 0.01 | 0.58 | 0.08 | 93 | 1014.1 |
| 20260505091559 | 52 | 0 | 0.0 | 0.0 | 0.01 | 0.57 | 0.07 | 93 | 1014.1 |
| 20260505090058 | 52 | 0 | 0.0 | 0.9 | 0.01 | 0.57 | 0.07 | 93 | 1014.3 |
| 20260505084558 | 52 | 0 | 0.0 | 0.0 | 0.03 | 0.57 | 0.07 | 93 | 1014.4 |
| 20260505083100 | 52 | 0 | 0.0 | 0.0 | 0.04 | 0.57 | 0.07 | 93 | 1014.8 |
| 20260505081559 | 52 | 0 | 0.0 | 0.9 | 0.05 | 0.56 | 0.06 | 93 | 1014.8 |
| 20260505080053 | 52 | 0 | 0.0 | 0.9 | 0.06 | 0.56 | 0.06 | 93 | 1014.7 |
| 20260505074554 | 52 | 0 | 0.0 | 0.0 | 0.06 | 0.54 | 0.04 | 93 | 1014.7 |
| 20260505073054 | 52 | 0 | 0.0 | 0.0 | 0.07 | 0.52 | 0.03 | 93 | 1014.9 |
| 20260505071553 | 52 | 0 | 0.0 | 0.9 | 0.06 | 0.51 | 0.01 | 92 | 1014.9 |
| 20260505070054 | 52 | 0 | 0.0 | 1.7 | 0.07 | 0.50 | 0.00 | 93 | 1015.2 |
| 20260505064551 | 52 | 0 | 0.0 | 1.7 | 0.11 | 0.48 | 0.48 | 93 | 1015.0 |
| 20260505063058 | 52 | 161 | 0.0 | 0.9 | 0.10 | 0.46 | 0.46 | 93 | 1015.1 |
| 20260505061603 | 52 | 0 | 0.0 | 1.7 | 0.10 | 0.45 | 0.45 | 92 | 1015.0 |
| 20260505060055 | 52 | 0 | 0.0 | 0.0 | 0.08 | 0.43 | 0.43 | 92 | 1015.2 |
| 20260505054558 | 52 | 0 | 0.0 | 0.0 | 0.03 | 0.37 | 0.37 | 92 | 1015.1 |
| 20260505053056 | 52 | 0 | 0.0 | 1.7 | 0.03 | 0.36 | 0.36 | 92 | 1015.1 |
| 20260505051559 | 52 | 0 | 0.0 | 0.0 | 0.05 | 0.35 | 0.35 | 92 | 1015.2 |
| 20260505041556 | 52 | 0 | 0.0 | 0.9 | 0.09 | 0.30 | 0.30 | 91 | 1015.4 |
| 20260505040104 | 53 | 68 | 0.0 | 1.7 | 0.07 | 0.25 | 0.25 | 91 | 1015.9 |
| 20260505034555 | 53 | 0 | 0.0 | 1.7 | 0.09 | 0.23 | 0.23 | 91 | 1015.8 |
| 20260505033052 | 53 | 0 | 0.0 | 0.9 | 0.09 | 0.22 | 0.22 | 91 | 1014.8 |
| 20260505031600 | 53 | 0 | 0.0 | 1.7 | 0.09 | 0.21 | 0.21 | 90 | 1014.3 |
| 20260505030059 | 53 | 0 | 0.0 | 2.6 | 0.08 | 0.18 | 0.18 | 90 | 1014.4 |
| 20260505024555 | 53 | 265 | 0.0 | 4.3 | 0.04 | 0.14 | 0.14 | 90 | 1014.4 |
| 20260505023051 | 53 | 0 | 0.0 | 2.6 | 0.04 | 0.13 | 0.13 | 89 | 1014.5 |
| 20260505021556 | 53 | 0 | 0.0 | 0.9 | 0.04 | 0.12 | 0.12 | 89 | 1014.7 |
| 20260505020054 | 53 | 0 | 0.0 | 0.9 | 0.02 | 0.10 | 0.10 | 89 | 1014.8 |
| 20260505014606 | 54 | 0 | 0.0 | 1.7 | 0.03 | 0.10 | 0.10 | 88 | 1014.9 |
| 20260505013051 | 54 | 0 | 0.0 | 0.9 | 0.03 | 0.09 | 0.09 | 88 | 1015.1 |
| 20260505011554 | 54 | 0 | 0.0 | 0.0 | 0.03 | 0.08 | 0.08 | 87 | 1015.3 |
| 20260505010056 | 54 | 0 | 0.0 | 0.9 | 0.04 | 0.08 | 0.08 | 87 | 1015.3 |
| 20260505004556 | 55 | 0 | 0.0 | 2.6 | 0.04 | 0.07 | 0.07 | 86 | 1015.2 |
| 20260505003054 | 55 | 0 | 0.0 | 0.9 | 0.03 | 0.06 | 0.06 | 87 | 1015.3 |
| 20260505001600 | 55 | 0 | 0.0 | 0.9 | 0.03 | 0.05 | 0.05 | 86 | 1015.3 |
| 20260505000058 | 55 | 0 | 0.0 | 5.2 | 0.03 | 0.04 | 0.04 | 84 | 1015.2 |
| 20260504234554 | 55 | 0 | 0.0 | 2.6 | 0.03 | 0.03 | 0.03 | 83 | 1015.1 |
| 20260504233058 | 56 | 360 | 0.9 | 5.2 | 0.03 | 0.03 | 0.03 | 82 | 1015.1 |
| 20260504231553 | 57 | 0 | 0.0 | 2.6 | 0.02 | 0.02 | 0.02 | 83 | 1015.0 |
| 20260504230053 | 58 | 0 | 0.0 | 2.6 | 0.01 | 0.01 | 0.01 | 82 | 1015.0 |
| 20260504224559 | 59 | 0 | 0.9 | 5.2 | 0.00 | 0.00 | 0.00 | 77 | 1014.8 |
| 20260504223053 | 59 | 324 | 0.0 | 6.1 | 0.00 | 0.00 | 0.00 | 73 | 1015.0 |
| 20260504221558 | 60 | 307 | 0.0 | 7.8 | 0.00 | 0.00 | 0.00 | 71 | 1015.2 |
| 20260504214605 | 62 | 283 | 1.7 | 8.7 | 0.00 | 0.00 | 0.00 | 65 | 1014.8 |
| 20260504213058 | 63 | 246 | 1.7 | 8.7 | 0.00 | 0.00 | 0.00 | 62 | 1014.7 |
| 20260504211602 | 64 | 248 | 2.6 | 7.0 | 0.00 | 0.00 | 0.00 | 61 | 1014.7 |
| 20260504210104 | 64 | 201 | 0.9 | 7.8 | 0.00 | 0.00 | 0.00 | 59 | 1014.7 |
| 20260504204607 | 65 | 244 | 1.7 | 4.3 | 0.00 | 0.00 | 0.00 | 58 | 1014.8 |
| 20260504203122 | 65 | 302 | 2.6 | 7.8 | 0.00 | 0.00 | 0.00 | 57 | 1014.7 |
| 20260504201553 | 65 | 0 | 1.7 | 6.1 | 0.00 | 0.00 | 0.00 | 55 | 1014.7 |
| 20260504200054 | 65 | 259 | 1.7 | 6.1 | 0.00 | 0.00 | 0.00 | 56 | 1014.7 |
| 20260504194550 | 65 | 232 | 0.9 | 8.7 | 0.00 | 0.00 | 0.00 | 56 | 1014.8 |
| 20260504193058 | 65 | 246 | 1.7 | 5.2 | 0.00 | 0.00 | 0.00 | 57 | 1014.9 |
| 20260504191558 | 64 | 360 | 0.9 | 7.0 | 0.00 | 0.00 | 0.00 | 59 | 1015.0 |
| 20260504190057 | 63 | 360 | 1.7 | 4.3 | 0.00 | 0.00 | 0.00 | 59 | 1015.1 |
| 20260504184602 | 63 | 360 | 0.9 | 4.3 | 0.00 | 0.00 | 0.00 | 62 | 1015.1 |
| 20260504183103 | 64 | 298 | 1.7 | 4.3 | 0.00 | 0.00 | 0.00 | 62 | 1015.1 |
| 20260504181603 | 64 | 0 | 0.0 | 3.5 | 0.00 | 0.00 | 0.00 | 62 | 1015.0 |
| 20260504180117 | 63 | 360 | 1.7 | 4.3 | 0.00 | 0.00 | 0.00 | 64 | 1014.9 |
| 20260504174555 | 62 | 0 | 0.9 | 3.5 | 0.00 | 0.00 | 0.00 | 65 | 1015.0 |
| 20260504173108 | 61 | 0 | 0.0 | 3.5 | 0.00 | 0.00 | 0.00 | 70 | 1015.3 |
| 20260504171607 | 61 | 306 | 0.0 | 4.3 | 0.00 | 0.00 | 0.00 | 72 | 1015.3 |